Regional Weather Roundup
Issued by NWS Little Rock, AR

Home | Current Version | Previous Version | Graphics & Text | Print | Product List | Glossary On
Versions: 1 2 3 4 5 6 7 8 9 10 11 12 13 14 15 16 17 18 19 20 21 22 23 24 25 26 27 28 29 30 31 32 33 34 35 36 37 38 39 40 41 42 43 44 45 46 47 48 49 50
000
ASUS44 KLZK 281305
RWRLZK

WEATHER ROUNDUP FOR ARKANSAS
NATIONAL WEATHER SERVICE LITTLE ROCK AR
800 AM CDT SUN MAY 28 2017

NOTE: "FAIR" INDICATES FEW OR NO CLOUDS BELOW 12,000 FEET WITH NO
SIGNIFICANT WEATHER AND/OR OBSTRUCTIONS TO VISIBILITY.

ARZ001-003-010-029-281400-
NORTHWEST ARKANSAS

CITY           SKY/WX    TMP DP  RH WIND       PRES   REMARKS
FAYETTEVILLE   CLOUDY    65  65 100 NW7       29.92R
FORT SMITH     CLOUDY    69  63  81 CALM      29.91R
HARRISON       CLOUDY    65  64  97 CALM      29.92R
BENTONVILLE    CLOUDY    64  61  88 CALM      29.96R
ROGERS         CLOUDY    63  62  97 CALM      29.96R
SILOAM SPGS    CLOUDY    63  57  82 N6        29.95R
HIGHFILL       CLOUDY    65  63  93 N6        29.95R
SPRINGDALE     MOSUNNY   64  64 100 N8        29.95R
$$

ARZ004-005-016-281400-
NORTH CENTRAL ARKANSAS

CITY           SKY/WX    TMP DP  RH WIND       PRES   REMARKS
BATESVILLE     CLOUDY    64  63  94 SW9G17    29.89F
FLIPPIN        CLOUDY    64  59  82 S5        29.87S
MTN HOME       CLOUDY    64  62  93 SW8       29.89R
$$

ARZ040-041-281400-
WEST CENTRAL ARKANSAS

CITY           SKY/WX    TMP DP  RH WIND       PRES   REMARKS
MENA           CLOUDY    68  66  94 SW5       29.97R
$$

ARZ009-017-025-026-028-281400-
NORTHEAST ARKANSAS

CITY           SKY/WX    TMP DP  RH WIND       PRES   REMARKS
CORNING        CLOUDY    66  66 100 SW20      29.89S
JONESBORO      CLOUDY    65  62  90 S18       29.87R
NEWPORT        CLOUDY    65  63  93 S18G26    29.86F
WALNUT RIDGE   CLOUDY    64  61  88 SW10      29.89R
BLYTHEVILLE    CLOUDY    66  64  93 S16       29.83F
$$

ARZ022-023-033-042-044-281400-
CENTRAL ARKANSAS

CITY           SKY/WX    TMP DP  RH WIND       PRES   REMARKS
LITTLE ROCK    CLOUDY    65  65 100 S17G36    29.86F
N LITTLE ROCK    N/A     65  63  94 S15G33    29.87F
JACKSONVILLE   CLOUDY    66  66  99 SW3       29.91R
CONWAY           N/A     68  64  88 VRB6      29.90R
SEARCY         CLOUDY    66  65  96 S16G24    29.92F
HOT SPRINGS    CLOUDY    66  64  93 E16G26    29.82F
RUSSELLVILLE   CLOUDY    67  65  93 CALM      29.88R
CLINTON        CLOUDY    66  64  94 S7G15     29.90F
$$

ARZ036-281400-
EAST ARKANSAS

CITY           SKY/WX    TMP DP  RH WIND       PRES   REMARKS
WEST MEMPHIS   LGT RAIN  65  65 100 S30G37    29.86F
$$

ARZ050-053-066-070-073-281400-
SOUTHWEST ARKANSAS

CITY           SKY/WX    TMP DP  RH WIND       PRES   REMARKS
ARKADELPHIA    LGT RAIN  66  64  93 SE15G25   29.81F
CAMDEN         RAIN      64  63  94 SE20G28   29.97F
TEXARKANA      CLOUDY    65  65 100 SE13G22   29.94R
EL DORADO      RAIN      66  66 100 E12       30.05F
DE QUEEN       CLOUDY    67  66  97 CALM      29.94F
$$

ARZ056-057-069-281400-
SOUTHEAST ARKANSAS

CITY           SKY/WX    TMP DP  RH WIND       PRES   REMARKS
STUTTGART      CLOUDY   N/A N/A N/A S30G39    29.90F
MONTICELLO     CLOUDY    66  64  93 SE7       30.07F

$$





USA.gov is the U.S. government's official web portal to all federal, state and local government web resources and services.